Flag for Hungary Weather past 2 weeks in Miskolc, Hungary

Now
27 °F

Clear.


Feels Like: 27 °F
Forecast: 26 / 50 °F
Wind: 1 mph from Southwest

Location: Miskolc

Current Time: Mar 7, 2015 at 5:42:44 AM

Latest Report: Mar 7, 2015 at 5:00 AM


Visibility: 9 mi

Pressure: 30.57 "Hg

Humidity: 79%

Dew point: 21 °F

Location of MiskolcLocation

Historic Weather in Miskolc — Graph

°F

Miskolc temperature yesterday

Maximum temperature yesterday: 45 °F (at 2:00 PM)
Minimum temperature yesterday: 29 °F (at 5:00 AM)
Average temperature yesterday: 36 °F

Past Weeks' High & Low Weather Summary

 TemperatureHumidityPressure
High54 °F (Feb 24, 2:00 PM)93% (Feb 23, 8:00 AM)30.59 "Hg (Feb 23, 8:00 AM)
Low24 °F (Feb 21, 6:00 AM)29% (Mar 4, 11:00 AM)29.66 "Hg (Mar 2, 4:00 PM)
Average41 °F74%30.02 "Hg
* Reported Feb 20 4:00 AM — Mar 7 3:00 AM, Miskolc, Weather by CustomWeather, © 2015

Note: Actual official high and low records may vary slightly from our data, if they occured in-between our weather recording intervals... More about our weather records

Advertising

Miskolc weather history for previous 24 hours

 ConditionsComfort  
Time TempWeatherWind HumidityBarometerVisibility
3:00 AM
Sat, Mar 7
29 °FClear.1 mph74%30.59 "Hg12 mi
2:00 AM28 °FClear.1 mph73%30.59 "Hg12 mi
1:00 AM29 °FClear.2 mph72%30.59 "Hg12 mi
12:00 AM31 °FClear.2 mph67%30.59 "Hg16 mi
11:00 PM
Fri, Mar 6
33 °FClear.2 mph64%30.58 "Hg19 mi
9:00 PM34 °FClear.2 mph61%30.57 "Hg19 mi
8:00 PM35 °FClear.1 mph56%30.55 "Hg22 mi
7:00 PM37 °FClear.2 mph51%30.53 "Hg25 mi
6:00 PM39 °FClear.2 mph47%30.51 "Hg28 mi
5:00 PM41 °FSunny.5 mph41%30.48 "Hg28 mi
4:00 PM43 °FSunny.6 mph39%30.47 "Hg28 mi
3:00 PM44 °FSunny.5 mph37%30.47 "Hg28 mi
2:00 PM45 °FPassing clouds.6 mph40%30.47 "Hg28 mi
1:00 PM44 °FPassing clouds.5 mph42%30.49 "Hg28 mi
12:00 PM43 °FPassing clouds.6 mph41%30.49 "Hg28 mi
11:00 AM42 °FScattered clouds.6 mph45%30.49 "Hg25 mi
10:00 AM41 °FScattered clouds.6 mph51%30.48 "Hg25 mi
9:00 AM38 °FPassing clouds.5 mph55%30.48 "Hg22 mi
8:00 AM35 °FSunny.2 mph62%30.47 "Hg19 mi
7:00 AM30 °FSunny.2 mph79%30.45 "Hg16 mi
6:00 AM30 °FClear.2 mph83%30.44 "Hg12 mi
5:00 AM29 °FClear.1 mph85%30.43 "Hg12 mi
Weather by CustomWeather, © 2015

See weather overviewHow to use our weather pages